Location: Blangy-Tronville
(49.8790°N, 2.4226°E)
Time: 20:12:50
(UTC+00:00)

RESURS DK-1 - Pass Details

Date: 18 November 2025
Orbit: 524 x 535 km, 69.9° (Epoch: 10 December)

Event Time Altitude Azimuth Distance (km) Brightness Sun altitude
Rises 16:51:58 0° 330° (NNW) 2,698 6.0 -8.0°
Reaches altitude 10° 16:54:10 10° 334° (NNW) 1,803 5.0 -8.3°
Maximum altitude 16:58:10 68° 57° (ENE) 584 2.2 -8.9°
Drops below altitude 10° 17:02:09 10° 141° (SE) 1,788 4.7 -9.5°
Sets 17:04:20 0° 144° (SE) 2,674 5.6 -9.9°
